Regional Weather Roundup
Issued by NWS

Home | Current Version | Previous Version | Text Only | Print | Product List | Glossary On
Versions: 1 2 3 4 5 6 7 8 9 10 11 12 13 14 15 16 17 18 19 20 21 22 23 24 25 26 27 28 29 30 31 32 33 34 35 36 37 38 39 40 41 42 43 44 45 46 47 48 49 50
899
ASUS43 KBIS 282102
RWRND

NORTH DAKOTA REGIONAL WEATHER ROUNDUP
NATIONAL WEATHER SERVICE BISMARCK ND
400 PM CDT THU JUL 28 2016

NOTE: "FAIR" INDICATES FEW OR NO CLOUDS BELOW 12,000 FEET WITH NO
SIGNIFICANT WEATHER AND/OR OBSTRUCTIONS TO VISIBILITY.


NDZ001>003-009>011-017-282200-
NORTHWEST NORTH DAKOTA

CITY           SKY/WX    TMP DP  RH WIND       PRES   REMARKS
WILLISTON      MOSUNNY   77  51  40 NE6       30.14F
MINOT          PTSUNNY   78  52  40 NE9       30.13F
$$

NDZ018>021-031>035-040>046-282200-
SOUTHWEST NORTH DAKOTA

CITY           SKY/WX    TMP DP  RH WIND       PRES   REMARKS
BISMARCK       CLOUDY    74  56  53 NE5       30.12F
DICKINSON      CLOUDY    65  58  78 E9        30.14F
GARRISON         N/A     70  55  59 NE6       30.15F
HETTINGER ARPT PTSUNNY   73  59  61 E14       30.14F
$$

NDZ004>008-012>016-024-026-027-054-282200-
NORTHEAST NORTH DAKOTA

CITY           SKY/WX    TMP DP  RH WIND       PRES   REMARKS
GRAND FORKS    MOSUNNY   77  57  50 N8        30.10F
DEVILS LAKE    PTSUNNY   71  57  61 CALM      30.15S
$$

NDZ022-023-025-028>030-036>039-047>053-282200-
SOUTHEAST NORTH DAKOTA

CITY           SKY/WX    TMP DP  RH WIND       PRES   REMARKS
FARGO          MOSUNNY   81  61  50 N6        30.07S
JAMESTOWN      CLOUDY    74  62  66 NE8       30.09F
$$





USA.gov is the U.S. government's official web portal to all federal, state and local government web resources and services.